Location: Buckeye Ditch
(40.9104°N, 122.9517°W)
Time: 17:56:52
(UTC+00:00)

BlueWalker 3 - Pass Details

Date: 24 June 2024
Orbit: 480 x 491 km, 53.2° (Epoch: 23 July)

Event Time Altitude Azimuth Distance (km) Brightness Sun altitude
Rises 05:05:17 0° 274° (W) 2,539 6.3 -12.2°
Reaches altitude 10° 05:07:55 10° 292° (WNW) 1,659 5.7 -12.5°
Maximum altitude 05:10:40 19° 340° (NNW) 1,197 4.8 -12.9°
Drops below altitude 10° 05:13:25 10° 28° (NNE) 1,659 4.8 -13.2°
Sets 05:16:03 0° 46° (NE) 2,539 5.6 -13.5°
